TimeMDT,TemperatureF,Dew PointF,Humidity,Sea Level PressureIn,VisibilityMPH,Wind Direction,Wind SpeedMPH,Gust SpeedMPH,PrecipitationIn,Events,Conditions,WindDirDegrees,DateUTC
12:53 AM,69.1,64.0,84,29.91,10.0,NW,5.8,-,N/A,,Clear,310,2013-09-03 06:53:00
1:53 AM,69.1,63.0,81,29.91,10.0,West,3.5,-,N/A,,Clear,270,2013-09-03 07:53:00
2:53 AM,66.9,62.1,84,29.91,10.0,WNW,4.6,-,N/A,,Clear,290,2013-09-03 08:53:00
3:53 AM,66.0,62.1,87,29.95,10.0,Calm,Calm,-,N/A,,Clear,0,2013-09-03 09:53:00
4:53 AM,64.9,62.1,90,29.97,10.0,West,4.6,-,N/A,,Clear,280,2013-09-03 10:53:00
5:53 AM,64.0,60.1,87,29.96,10.0,NW,4.6,-,N/A,,Clear,320,2013-09-03 11:53:00
6:53 AM,66.0,60.1,81,29.99,10.0,NNW,4.6,-,N/A,,Clear,330,2013-09-03 12:53:00
7:53 AM,71.1,62.1,73,30.00,10.0,NNW,5.8,-,N/A,,Clear,330,2013-09-03 13:53:00
8:53 AM,75.9,61.0,60,30.01,10.0,NNE,4.6,-,N/A,,Clear,20,2013-09-03 14:53:00
9:19 AM,78.8,60.8,54,30.16,8.0,Variable,4.6,-,N/A,,Partly Cloudy,0,2013-09-03 15:19:00
9:53 AM,81.0,61.0,50,30.01,10.0,Calm,Calm,-,N/A,,Clear,0,2013-09-03 15:53:00
10:53 AM,84.9,61.0,44,30.00,10.0,East,5.8,-,N/A,,Clear,100,2013-09-03 16:53:00
11:53 AM,88.0,57.0,35,29.98,10.0,SE,8.1,-,N/A,,Clear,130,2013-09-03 17:53:00
12:53 PM,90.0,55.0,30,29.96,10.0,East,11.5,18.4,N/A,,Clear,80,2013-09-03 18:53:00
1:53 PM,89.1,55.0,31,29.94,10.0,ENE,9.2,-,N/A,,Partly Cloudy,60,2013-09-03 19:53:00
2:53 PM,93.0,51.1,24,29.91,10.0,ESE,10.4,17.3,N/A,,Partly Cloudy,120,2013-09-03 20:53:00
3:53 PM,93.0,51.1,24,29.88,10.0,SSE,10.4,18.4,N/A,,Clear,160,2013-09-03 21:53:00
4:53 PM,93.9,48.9,21,29.87,10.0,East,12.7,26.5,N/A,,Clear,100,2013-09-03 22:53:00
5:53 PM,91.9,48.9,23,29.87,10.0,SE,8.1,19.6,N/A,,Clear,140,2013-09-03 23:53:00
6:53 PM,89.1,46.0,22,29.86,10.0,SE,9.2,-,N/A,,Clear,140,2013-09-04 00:53:00
7:53 PM,84.0,46.0,26,29.87,10.0,SSE,3.5,-,N/A,,Clear,150,2013-09-04 01:53:00
8:53 PM,75.9,45.0,33,29.89,10.0,South,3.5,-,N/A,,Clear,190,2013-09-04 02:53:00
9:53 PM,75.9,46.0,35,29.90,10.0,West,3.5,-,N/A,,Clear,270,2013-09-04 03:53:00
10:53 PM,75.9,46.9,36,29.92,10.0,NNE,4.6,-,N/A,,Clear,30,2013-09-04 04:53:00
11:53 PM,75.0,52.0,44,29.94,10.0,SE,5.8,-,N/A,,Clear,140,2013-09-04 05:53:00